When you browse on this site, cookies collect data to enhance your experience and personalize the content and advertising you see.
Visit our Privacy Policy to learn more. By continuing to use the site, you agree to this use of cookies and data.
  • In Hungary
  • List of Countries
  • For 7 days
  • Water Temperature
  • Weather Map
  • News
  • Weather Widgets
  • user-avatar
    Login

    Hourly Weather Loubomo

    Today, 28 March, Saturday

    Time Temperature Precipitation Wind Pressure Humidity
    00:00 +22°C° 0.1 mm 1 mps 700 mmHg 95%
    01:00 +21°C° 0 mm 0 mps 700 mmHg 95%
    02:00 +21°C° 0.1 mm 0 mps 700 mmHg 95%
    03:00 +21°C° 0.1 mm 0 mps 699 mmHg 95%
    04:00 +21°C° 0.1 mm 0 mps 699 mmHg 94%
    05:00 +21°C° 0 mm 0 mps 700 mmHg 94%
    06:00 +21°C° 0 mm 0 mps 700 mmHg 93%
    07:00 +21°C° 0 mm 0 mps 701 mmHg 92%
    08:00 +24°C° 0 mm 0 mps 702 mmHg 79%
    09:00 +29°C° 0 mm 1 mps 702 mmHg 66%
    10:00 +32°C° 0 mm 1 mps 702 mmHg 53%
    11:00 +35°C° 0 mm 1 mps 702 mmHg 44%
    12:00 +36°C° 0 mm 0 mps 701 mmHg 36%
    13:00 +40°C° 0 mm 1 mps 701 mmHg 28%
    14:00 +37°C° 0 mm 1 mps 700 mmHg 32%
    15:00 +36°C° 0 mm 1 mps 698 mmHg 37%
    16:00 +34°C° 0 mm 1 mps 697 mmHg 41%
    17:00 +32°C° 0 mm 1 mps 698 mmHg 49%
    18:00 +30°C° 0 mm 1 mps 698 mmHg 58%
    19:00 +28°C° 0 mm 1 mps 698 mmHg 67%
    20:00 +27°C° 0.1 mm 1 mps 698 mmHg 73%
    21:00 +26°C° 0.1 mm 1 mps 699 mmHg 78%
    22:00 +25°C° 0.1 mm 1 mps 699 mmHg 84%
    23:00 +24°C° 0 mm 1 mps 699 mmHg 86%

    Tomorrow, 29 March, Sunday

    Time Temperature Precipitation Wind Pressure Humidity
    00:00 +24°C° 0 mm 1 mps 699 mmHg 88%
    01:00 +23°C° 0 mm 1 mps 699 mmHg 89%
    02:00 +23°C° 0.2 mm 1 mps 699 mmHg 91%
    03:00 +23°C° 0.2 mm 1 mps 699 mmHg 92%
    04:00 +20°C° 0.2 mm 0 mps 698 mmHg 93%
    05:00 +20°C° 0.1 mm 0 mps 699 mmHg 93%
    06:00 +20°C° 0.1 mm 0 mps 700 mmHg 93%
    07:00 +20°C° 0.1 mm 0 mps 700 mmHg 93%
    08:00 +25°C° 0 mm 1 mps 701 mmHg 80%
    09:00 +28°C° 0 mm 1 mps 702 mmHg 68%
    10:00 +31°C° 0 mm 1 mps 702 mmHg 55%
    11:00 +34°C° 0 mm 1 mps 702 mmHg 47%
    12:00 +35°C° 0 mm 0 mps 701 mmHg 39%
    13:00 +38°C° 0 mm 0 mps 701 mmHg 31%
    14:00 +36°C° 0 mm 0 mps 699 mmHg 32%
    15:00 +37°C° 0 mm 1 mps 698 mmHg 32%
    16:00 +36°C° 0 mm 1 mps 697 mmHg 33%
    17:00 +33°C° 0.1 mm 1 mps 697 mmHg 43%
    18:00 +30°C° 0.1 mm 1 mps 697 mmHg 52%
    19:00 +26°C° 0.1 mm 0 mps 697 mmHg 61%
    20:00 +26°C° 1.2 mm 1 mps 698 mmHg 71%
    21:00 +25°C° 1.2 mm 1 mps 698 mmHg 81%
    22:00 +24°C° 1.2 mm 1 mps 699 mmHg 90%
    23:00 +23°C° 0.1 mm 1 mps 699 mmHg 91%

    Day after tomorrow, 30 March, Monday

    Time Temperature Precipitation Wind Pressure Humidity
    00:00 +23°C° 0.1 mm 1 mps 698 mmHg 92%
    01:00 +23°C° 0.1 mm 1 mps 698 mmHg 93%
    02:00 +22°C° 0 mm 1 mps 698 mmHg 94%
    03:00 +22°C° 0 mm 1 mps 698 mmHg 94%
    04:00 +22°C° 0 mm 1 mps 697 mmHg 95%
    05:00 +22°C° 0 mm 1 mps 698 mmHg 95%
    06:00 +23°C° 0 mm 1 mps 698 mmHg 94%
    07:00 +21°C° 0 mm 0 mps 699 mmHg 94%
    08:00 +26°C° 0 mm 1 mps 700 mmHg 79%
    09:00 +30°C° 0 mm 1 mps 700 mmHg 64%
    10:00 +33°C° 0 mm 1 mps 701 mmHg 49%
    11:00 +35°C° 0 mm 1 mps 700 mmHg 43%
    12:00 +37°C° 0 mm 1 mps 699 mmHg 36%
    13:00 +40°C° 0 mm 1 mps 699 mmHg 30%
    14:00 +39°C° 0 mm 1 mps 698 mmHg 32%
    15:00 +37°C° 0 mm 1 mps 697 mmHg 35%
    16:00 +33°C° 0 mm 0 mps 696 mmHg 37%
    17:00 +33°C° 0.1 mm 1 mps 696 mmHg 47%
    18:00 +31°C° 0.1 mm 1 mps 696 mmHg 56%
    19:00 +28°C° 0.1 mm 1 mps 696 mmHg 66%
    20:00 +27°C° 0.4 mm 1 mps 697 mmHg 73%
    21:00 +26°C° 0.4 mm 1 mps 698 mmHg 79%
    22:00 +26°C° 0.4 mm 1 mps 699 mmHg 86%
    23:00 +25°C° 0.7 mm 1 mps 699 mmHg 88%

    31 March, Tuesday

    Time Temperature Precipitation Wind Pressure Humidity
    00:00 +25°C° 0.7 mm 1 mps 698 mmHg 91%
    01:00 +24°C° 0.7 mm 1 mps 698 mmHg 93%
    02:00 +24°C° 0.1 mm 1 mps 698 mmHg 94%
    03:00 +24°C° 0.1 mm 1 mps 698 mmHg 95%
    04:00 +24°C° 0.1 mm 1 mps 698 mmHg 96%
    05:00 +24°C° 0 mm 1 mps 698 mmHg 96%
    06:00 +24°C° 0 mm 1 mps 699 mmHg 95%
    07:00 +24°C° 0 mm 1 mps 699 mmHg 95%
    08:00 +27°C° 0 mm 1 mps 700 mmHg 81%
    09:00 +30°C° 0 mm 1 mps 700 mmHg 68%
    10:00 +33°C° 0 mm 1 mps 701 mmHg 54%
    11:00 +35°C° 0 mm 1 mps 700 mmHg 47%
    12:00 +37°C° 0 mm 1 mps 700 mmHg 39%
    13:00 +40°C° 0 mm 1 mps 699 mmHg 32%
    14:00 +36°C° 0.2 mm 1 mps 698 mmHg 41%
    15:00 +33°C° 0.2 mm 1 mps 697 mmHg 51%
    16:00 +31°C° 0.2 mm 2 mps 695 mmHg 60%
    17:00 +29°C° 0.6 mm 2 mps 696 mmHg 68%
    18:00 +27°C° 0.6 mm 1 mps 696 mmHg 76%
    19:00 +26°C° 0.6 mm 1 mps 697 mmHg 84%
    20:00 +25°C° 0.6 mm 1 mps 698 mmHg 87%
    21:00 +25°C° 0.6 mm 1 mps 699 mmHg 90%
    22:00 +24°C° 0.6 mm 1 mps 699 mmHg 94%
    23:00 +24°C° 0.1 mm 1 mps 699 mmHg 94%

    1 April, Wednesday

    Time Temperature Precipitation Wind Pressure Humidity
    00:00 +24°C° 0.1 mm 1 mps 699 mmHg 94%
    01:00 +23°C° 0.1 mm 1 mps 699 mmHg 95%
    02:00 +23°C° 0.1 mm 1 mps 699 mmHg 95%
    03:00 +23°C° 0.1 mm 1 mps 699 mmHg 96%
    04:00 +22°C° 0.1 mm 1 mps 698 mmHg 97%
    05:00 +22°C° 0.1 mm 1 mps 699 mmHg 97%
    06:00 +22°C° 0.1 mm 1 mps 699 mmHg 96%
    07:00 +23°C° 0.1 mm 1 mps 699 mmHg 96%
    08:00 +25°C° 0 mm 1 mps 700 mmHg 87%
    09:00 +27°C° 0 mm 1 mps 701 mmHg 78%
    10:00 +29°C° 0 mm 1 mps 701 mmHg 69%
    11:00 +31°C° 0 mm 1 mps 701 mmHg 61%
    12:00 +33°C° 0 mm 1 mps 700 mmHg 53%
    13:00 +35°C° 0 mm 1 mps 699 mmHg 45%
    14:00 +34°C° 0.3 mm 1 mps 698 mmHg 49%
    15:00 +33°C° 0.3 mm 1 mps 697 mmHg 53%
    16:00 +32°C° 0.3 mm 1 mps 697 mmHg 57%
    17:00 +30°C° 0.2 mm 1 mps 697 mmHg 67%
    18:00 +28°C° 0.2 mm 1 mps 697 mmHg 76%
    19:00 +26°C° 0.2 mm 1 mps 697 mmHg 85%
    20:00 +25°C° 0.2 mm 1 mps 697 mmHg 88%
    21:00 +25°C° 0.2 mm 1 mps 698 mmHg 90%
    22:00 +25°C° 0.2 mm 1 mps 699 mmHg 92%
    23:00 +24°C° 0.1 mm 1 mps 699 mmHg 93%

    2 April, Thursday

    Time Temperature Precipitation Wind Pressure Humidity
    00:00 +24°C° 0.1 mm 1 mps 699 mmHg 93%
    01:00 +24°C° 0.1 mm 1 mps 699 mmHg 94%
    02:00 +24°C° 0 mm 1 mps 698 mmHg 95%
    03:00 +24°C° 0 mm 1 mps 698 mmHg 96%
    04:00 +23°C° 0 mm 1 mps 698 mmHg 97%
    05:00 +24°C° 0 mm 1 mps 698 mmHg 96%
    06:00 +24°C° 0 mm 1 mps 699 mmHg 95%
    07:00 +24°C° 0 mm 1 mps 699 mmHg 94%
    08:00 +26°C° 0 mm 1 mps 700 mmHg 82%
    09:00 +29°C° 0 mm 1 mps 700 mmHg 70%
    10:00 +31°C° 0 mm 2 mps 701 mmHg 58%
    11:00 +34°C° 0 mm 2 mps 700 mmHg 52%
    12:00 +34°C° 0 mm 1 mps 700 mmHg 47%
    13:00 +36°C° 0 mm 1 mps 699 mmHg 41%
    14:00 +35°C° 0 mm 1 mps 698 mmHg 42%
    15:00 +35°C° 0 mm 1 mps 697 mmHg 43%
    16:00 +35°C° 0 mm 1 mps 697 mmHg 43%
    17:00 +32°C° 0.5 mm 1 mps 697 mmHg 56%
    18:00 +29°C° 0.5 mm 1 mps 696 mmHg 68%
    19:00 +27°C° 0.5 mm 1 mps 696 mmHg 80%
    20:00 +26°C° 1.3 mm 1 mps 697 mmHg 86%
    21:00 +25°C° 1.3 mm 1 mps 698 mmHg 91%
    22:00 +24°C° 1.3 mm 1 mps 698 mmHg 96%
    23:00 +24°C° 0.2 mm 1 mps 698 mmHg 96%
    Show more